ATLAS 5 CENTAUR DEB, 43974

Orbit data source: Space-Track

ATLAS 5 CENTAUR DEB, 43974 is space debris in HEO originally from a launch on Wed, 17 Sep 2014 UTC launched from the Air Force Eastern Test Range (AFETR). Debris objects in space refer to the collection of defunct objects orbiting the Earth. Examples of debris include non-operational satellites, rocket bodies, and fragments generated from explosions, collisions, or faulty payload assembly.

Loading next visibility...
Identifier
43974, 2014-055AD
Orbit
HEO
Country
Flag of USUS
Related business
Flag of USUnited Launch Alliance/Lockheed Martin (US)
Manufacturer
Unknown
Mission
Spacecraft
Bus & Motor
Unknown
Mass
Unknown
Launch date (UTC)
2014-09-17 (12 years ago)
Launch vehicle
Unknown
Launch site
Air Force Eastern Test Range (AFETR)
Object type
Payload
Rocket body
Debris
Shape & HBR
Unknown shape, 1.1 m
Radar Cross Section
Medium (>0.1 m² and <1 m²)

Expand to show TLE details & history
Last TLE update: 3 days ago

TLE from 3 days ago
0 ATLAS 5 CENTAUR DEB
1 43974U 14055AD  26170.07534678 -.00000066  00000-0  00000-0 0  9991
2 43974  20.3836 131.5869 4869694 180.8852 177.7992  1.84468744 52568
Epoch: 2026-06-19T01:48Z
TLE epoch observation values (Epoch: 2026-06-19T01:48:29.961Z)
Latitude
0.00001°
Longitude
-162.88753°
Altitude
35,381.543 km
Speed
2.213 km/s
True Right ascension
08h 46m 11s
True Declination
0° 00' 00"
Sunlit
Object was in daylight at epoch
Visualization orbit readout
Latitude
Unknown
Longitude
Unknown
Altitude
Unknown
Speed
Unknown
Apparent Right ascension
Unknown
Apparent Declination
Unknown
Sunlit
N/A
Visualization observer readout
Local Sidereal Time
23:20:01
Azimuth
Unknown
Elevation
Unknown
Doppler factor
Unknown
Orbital elements
Apogee altitude
35,384.257 km
Perigee altitude
8,030.624 km
Semi-major axis
28,085.577 km
Eccentricity
0.48697
Inclination
20.3836°
RAAN
131.5869°
Arg. of periapsis
180.8852°
True anomaly
179.13058°
Mean anomaly
177.7992°
Eccentric anomaly
178.51989°
Mean motion
0.46112 °/min
Orbital period
780.7 mins
BSTAR
0
Loading maneuver chart data...
Computing Atmospheric mass density...

Documentation

Showing up to 5 results
|